AirNav   Jet Aviation Boston
 
 944 users online  

29VA Rhynalds Ranch Airport
Remington, Virginia, USA

GOING TO REMINGTON?


FAA INFORMATION EFFECTIVE 19 JULY 2018

Location

FAA Identifier: 29VA
Lat/Long: 38-31-45.4480N / 077-44-19.9700W
38-31.757467N / 077-44.332833W
38.5292911 / -77.7388806
(estimated)
Elevation: 285 ft. / 87 m (estimated)
Variation: 09W (1985)
From city: 4 miles E of REMINGTON, VA
Time zone: UTC -4 (UTC -5 during Standard Time)
Zip code: 22712

Airport Operations

Airport use: Private use. Permission required prior to landing
Activation date: 08/1985
Control tower: no
ARTCC: WASHINGTON CENTER
FSS: LEESBURG FLIGHT SERVICE STATION
Attendance: UNATNDD
Wind indicator: yes
Segmented circle: no

Airport Communications

WX AWOS-3 at HWY (4 nm N): 120.350 (540-788-4078)
WX AWOS-3 at CJR (6 nm W): 119.325 (540-727-0523)
WX AWOS-3 at RMN (15 nm SE): 126.325 (540-657-8283)
WX AWOS-3PT at HEF (16 nm NE): PHONE 703-361-6160

Nearby radio navigation aids

VOR radial/distance  VOR name  Freq  Var
CSNr145/9.0CASANOVA VORTAC116.3006W
BRVr312/21.5BROOKE VORTAC114.5009W
AMLr216/27.5ARMEL VOR/DME113.5008W
LDNr138/29.3LINDEN VORTAC114.3006W
GVEr038/36.6GORDONSVILLE VORTAC115.6006W
DCAr248/38.4WASHINGTON VOR/DME111.0009W

 
NDB name  Hdg/Dist  Freq  Var  ID
NAILR070/9.035110WMSQ -- ... --.-
SHANNON329/20.823710WEZF . --.. ..-.
DAVEE264/30.522309WDAA -.. .- .-
CAVERNS116/35.924509WLUA .-.. ..- .-
OXONN258/36.233211WDCA -.. -.-. .-
GEORGETOWN239/37.532309WGTN --. - -.

Airport Services

Runway Information

Runway 10/28

Dimensions: 2500 x 120 ft. / 762 x 37 m
Surface: turf
RUNWAY 10  RUNWAY 28
Traffic pattern: leftright

Airport Ownership and Management from official FAA records

Ownership: Privately-owned
Owner: DON & DIANE W. RHYNALDS
5350 SAVANNAH BRANCH RD
BEALETON, VA 22712
Phone 540-439-8127
Manager: DON J. RHYNALDS
5350 SAVANNAH BRANCH RD
BEALETON, VA 22712
Phone 540-439-8127

Airport Operational Statistics

Aircraft based on the field: 1
Single engine airplanes: 1
    

Instrument Procedures

There are no published instrument procedures at 29VA.

Some nearby airports with instrument procedures:

KHWY - Warrenton-Fauquier Airport (4 nm N)
KCJR - Culpeper Regional Airport (6 nm W)
KRMN - Stafford Regional Airport (15 nm SE)
KHEF - Manassas Regional Airport/Harry P. Davis Field (16 nm NE)
KNYG - Quantico Marine Corps Airfield / Turner Field (20 nm E)
 
Loc | Ops | Rwys | IFR | FBO | Links
Com | Nav | Svcs | Stats | Notes


 
Area around 29VA (Rhynalds Ranch Airport)
 
Road maps at: MapQuest Bing Google
 
Aerial photo
No photo
 
Sectional chart

 
Airport distance calculator
Flying to Rhynalds Ranch Airport? Find the distance to fly.

From to 29VA

Sunrise and sunset
Times for 21-Jul-2018
 Local
(UTC-4)
 Zulu
(UTC)
Morning civil twilight05:3409:34
Sunrise06:0410:04
Sunset20:3000:30
Evening civil twilight21:0101:01

Current date and time
Zulu (UTC)  22-Jul-2018 01:41:10
Local (UTC-4)  21-Jul-2018 21:41:10
 
METAR
KHWY 
4nm N 
220115Z AUTO 35007KT 10SM RA OVC011 20/17 A2973 RMK AO2 P0001 T01950171
KHEF 
15nm NE 
220056Z 34012KT 4SM BR SCT006 OVC031 18/18 A2973 RMK AO2 SLP077 T01830178 PNO $
KRMN 
15nm SE 
220115Z AUTO 29013G18KT 5SM -RA SCT007 BKN016 OVC021 19/19 A2973 RMK AO2 P0005 T01920192
KCJR 
19nm W 
220115Z AUTO 34008KT 7SM RA BKN010 BKN014 OVC020 19/18 A2975 RMK AO2 T01930179
TAF
KNYG 
21nm E 
2115/2215 07012KT 9000 -SHRA BR BKN020 OVC040 QNH2970INS TEMPO 2115/2121 03012KT 4800 SHRA BR OVC015 TEMPO 2121/2203 36012G20KT FM220700 VRB06KT 9999 BKN015 QNH2974INS T19/2208Z T25/2215Z LAST NO AMDS AFT 2115/ NEXT 2221
NOTAMs
Click for the latest NOTAMs
NOTAMs are issued by the DoD/FAA and will open in a separate window not controlled by AirNav.

 

 
 

Would you like to see your business listed on this page?

 If your business provides an interesting product or service to pilots, flight crews, aircraft, or users of the Rhynalds Ranch Airport, you should consider listing it here.  To start the listing process, click on the button below
 
Add a business
 

Other Pages about Rhynalds Ranch Airport

Update a link
 
Copyright © AirNav, LLC. All rights reserved. Privacy Policy  Contact